Lid_Strength_Index
6 5 5 5 5 5 4 4 4 3 3 3 2 2 2 2 2 6 8 5 4 -0 -0 6 7 7 8 10 10 7 12 14 13 12 11 10 10 8 9 10 6 6 6 5 4
6 6 5 5 5 5 5 4 4 3 3 3 2 2 2 2 5 9 4 1 1 -1 4 8 9 8 11 11 11 9 13 12 10 11 13 11 11 9 10 11 10 7 5 3 6
6 6 6 6 5 5 5 4 4 3 3 2 2 2 1 3 9 9 2 1 1 2 5 7 8 9 11 12 12 13 13 13 12 10 10 11 11 10 10 10 9 11 9 4 6
6 6 6 6 6 5 5 4 4 3 3 2 2 2 1 6 15 7 1 1 1 3 4 6 7 11 12 13 11 15 12 11 10 9 10 11 11 11 11 9 8 9 5 5 5
6 7 6 6 6 5 5 4 4 3 3 2 2 2 6 11 10 5 2 2 4 4 6 7 9 10 12 12 11 14 11 10 10 10 11 11 12 12 11 9 8 8 5 5 5
7 7 7 6 6 5 5 4 3 3 3 2 2 2 9 13 6 5 5 4 4 6 6 7 8 8 11 11 12 11 11 11 11 11 11 12 12 12 12 10 9 8 5 5 5
7 7 7 6 6 5 5 4 3 3 3 2 2 5 9 10 6 5 5 6 5 6 8 7 6 9 10 12 10 10 13 12 12 11 11 10 14 14 12 9 9 9 8 5 5
7 7 7 7 6 5 4 3 3 3 3 2 2 7 11 5 6 5 5 6 5 4 6 6 6 8 10 9 11 13 14 17 13 11 11 12 16 12 10 11 10 9 9 8 5
8 8 7 6 6 5 4 3 3 4 3 3 7 9 12 4 7 5 6 7 6 5 5 5 8 10 11 14 16 16 19 17 15 11 12 13 15 12 10 11 11 10 9 8 7
8 8 7 6 5 4 4 4 4 6 6 5 6 12 9 9 7 6 6 5 7 7 8 9 11 14 15 16 19 17 18 16 15 12 12 13 14 12 11 11 11 11 10 9 8
8 8 7 6 5 5 7 11 12 12 10 11 11 10 9 7 6 6 6 7 7 10 13 12 14 16 15 15 14 15 15 15 13 10 12 13 13 12 11 11 11 11 11 10 9
8 8 7 6 5 6 9 12 11 11 13 9 9 9 8 7 9 7 6 10 11 14 12 15 16 13 12 12 13 14 14 15 12 10 10 12 12 10 10 11 11 11 11 10 9
8 8 7 6 6 8 10 10 7 8 14 11 9 9 9 7 9 8 7 10 12 14 14 17 14 11 12 14 14 14 14 15 14 11 11 12 14 12 9 8 9 9 9 9 8
8 8 7 6 10 10 11 7 7 9 21 16 12 10 9 8 11 6 7 9 12 15 14 15 12 13 14 14 12 14 11 11 12 13 17 12 19 13 11 10 9 9 10 10 10
8 8 7 7 11 12 9 7 7 11 27 16 13 8 9 11 11 10 7 10 14 14 15 16 15 14 15 13 11 13 11 11 12 13 14 14 17 14 11 12 11 9 9 9 9
8 9 7 9 10 10 8 8 11 21 27 20 14 14 13 12 12 11 11 10 11 15 15 15 12 13 13 12 11 10 11 12 12 13 19 15 16 16 14 13 11 9 9 9 9
8 9 9 9 12 9 9 13 21 25 20 22 17 15 14 15 14 13 14 15 17 22 22 17 15 13 11 13 11 12 14 20 22 21 20 14 16 14 12 11 9 10 10 9 8
8 8 9 9 9 9 13 19 27 27 24 16 15 15 16 16 16 15 15 19 16 18 21 20 22 14 12 13 13 13 14 18 25 22 19 14 17 13 11 9 9 8 9 9 9
8 12 12 10 9 12 17 26 24 23 18 17 17 21 21 16 17 18 18 17 16 15 19 18 20 14 13 12 12 14 16 12 16 19 18 17 14 11 10 10 10 10 10 10 11
13 13 13 9 11 15 21 22 21 16 14 16 21 20 26 20 20 21 19 15 16 14 13 14 19 15 13 12 12 13 11 16 16 24 24 18 18 16 13 12 10 11 11 11 10
14 16 12 10 13 18 25 24 19 15 14 16 18 19 18 18 19 24 19 15 14 15 14 14 16 17 15 16 15 14 15 13 14 15 20 21 18 14 12 12 11 12 11 12 11
16 21 12 13 21 29 25 24 16 16 14 15 15 16 17 17 17 17 17 16 14 14 17 15 15 20 18 15 13 13 14 13 17 18 16 16 17 12 12 12 11 11 11 11 11
18 17 12 14 25 24 20 22 17 16 16 16 16 15 16 17 19 16 16 14 13 15 16 15 17 24 21 18 16 16 14 13 12 13 16 19 17 10 11 11 11 11 11 11 11
18 20 17 15 19 22 23 23 21 16 16 15 15 15 16 17 16 17 16 15 13 14 11 14 18 20 22 19 17 18 16 14 14 16 16 16 16 13 13 13 12 11 11 11 11
19 21 18 20 19 21 21 20 19 21 16 16 17 16 16 20 18 18 16 16 14 13 14 16 26 19 17 17 17 16 15 15 15 14 16 15 16 13 13 13 13 12 10 10 10
20 20 19 21 17 21 19 22 19 18 18 18 22 16 16 20 18 18 16 17 17 15 16 17 25 23 26 17 17 17 16 15 15 15 16 16 15 11 11 11 12 11 11 10 10
16 15 17 18 19 21 21 19 19 17 16 15 16 16 17 16 15 15 15 15 15 16 18 21 26 26 30 21 19 25 18 16 16 15 15 16 14 12 12 12 12 12 10 10 10